Simultaneous Nadir Overpasses (SNOs) Predictions

Prediction of SNOs between LANDSAT-8 and NOAA-19 Satellite Orbit:

Table of predicted SNOs for the next 14.0 days since TLE Epoch: 11/13/2020
Index Date (LANDSAT-8) Time (LANDSAT-8) Lat,Lon (LANDSAT-8) SZA (LANDSAT-8 ) Date (NOAA-19) Time (NOAA-19) Lat,Lon (NOAA-19) SZA (NOAA-19 ) Distance(km) Time Diff (sec)
1 11/15/2020 06:49:03 80.06, 105.90 100.07 11/15/2020 06:48:18 80.06, 105.92 100.06 0.36 45
2 11/15/2020 07:38:30 -80.06, -86.47 79.93 11/15/2020 07:39:22 -80.03, -86.48 79.93 3.09 52
3 11/17/2020 12:22:47 -80.07,-157.45 79.38 11/17/2020 12:21:37 -80.07,-157.54 79.41 1.74 70
4 11/17/2020 13:12:14 80.04, 9.92 100.58 11/17/2020 13:12:31 80.05, 10.09 100.61 3.34 17
5 11/19/2020 18:45:59 -80.05, 106.58 78.90 11/19/2020 18:45:51 -80.06, 106.67 78.88 2.21 8
6 11/22/2020 00:19:42 80.09,-156.52 101.65 11/22/2020 00:19:00 80.06,-156.54 101.61 3.09 42
7 11/22/2020 01:09:10 -80.06, 10.87 78.40 11/22/2020 01:10:05 -80.05, 10.86 78.39 1.22 55
8 11/24/2020 05:53:27 -80.10, -59.87 77.90 11/24/2020 05:52:20 -80.07, -59.95 77.95 3.19 67
9 11/24/2020 06:42:54 80.06, 107.45 102.05 11/24/2020 06:43:15 80.08, 107.31 102.06 3.02 21
10 11/26/2020 12:16:39 -80.07,-155.91 77.53 11/26/2020 12:16:34 -80.07,-155.81 77.52 1.97 5
